Tracking 31027 objects as of 19-Jul-2025
HD Live streaming from Space Station
objects crossing your sky now

STARLINK-1601

Track STARLINK-1601 now!
10-day predictions
STARLINK-1601 is classified as:


NORAD ID: 46120
Int'l Code: 2020-057D
Perigee: 553.4 km
Apogee: 555.3 km
Inclination: 53.1 °
Period: 95.6 minutes
Semi major axis: 6925 km
RCS: Unknown
Launch date: August 18, 2020
Source: United States (US)
Launch site: AIR FORCE EASTERN TEST RANGE (AFETR)
Your satellite tracking list
HAWK-4A
Track 1 satellite(s)




NASA's NSSDC Master Catalog

Two Line Element Set (TLE):
1 46120U 20057D   25199.52893054 -.00000765  00000-0 -32453-4 0  9990
2 46120  53.0544 287.8077 0001364  86.6037 273.5108 15.06387684272059
Source of the keplerian elements: AFSPC